Weather History for Rutland, VT

Change the Weather History Date:

Wednesday, February 20, 2013

  Actual Average Record
Temperature  
Mean Temperature 27 °F -  
Max Temperature 32 °F - 58 °F (1981)
Min Temperature 21 °F - -18 °F (1966)
Degree Days  
Heating Degree Days 38    
Month to date heating degree days 871  
Since 1 July heating degree days 4596  
Cooling Degree Days 0    
Month to date cooling degree days 0  
Year to date cooling degree days 0  
Moisture  
Dew Point 19 °F    
Average Humidity 83    
Maximum Humidity 100    
Minimum Humidity 65    
Precipitation  
Precipitation 0.01 in - 0.50 in (1974)
Month to date precipitation 0.23  
Year to date precipitation 1.47  
Sea Level Pressure  
Sea Level Pressure 29.66 in    
Wind  
Wind Speed 8 mph (West)    
Max Wind Speed 13 mph    
Max Gust Speed 25 mph    
Visibility 7 miles    
Events      
T = Trace of Precipitation, MM = Missing Value Source: NWS Daily Summary

Daily Weather History Graph

Daily Weather History Graph

Search for Another Location

Airport:

Trip Planner

Search our weather history database for the weather conditions in past years. The results will help you decide how hot, cold, wet, or windy it might be!

Date:

Astronomy

Feb. 20, 2013 Rise Set
Actual Time 6:42 AM EST 5:29 PM EST
Civil Twilight 6:13 AM EST 5:58 PM EST
Nautical Twilight 5:40 AM EST 6:31 PM EST
Astronomical Twilight 5:06 AM EST 7:04 PM EST
Moon 12:42 PM EST (2/20) 3:05 AM EST (2/20)
Length of Visible Light 11h 45m
Length of Day
10h 46m
Waxing Gibbous, 76% of the Moon is Illuminated
Feb 20
Waxing Gibbous
Feb 25
Full
Mar 4
Last Quarter
Mar 11
New
Mar 19
First Quarter

Hourly Weather History & Observations

Time (EST) Temp. Windchill Dew Point Humidity Pressure Visibility Wind Dir Wind Speed Gust Speed Precip Events Conditions
12:16 AM 32.0 °F 25.6 °F 30.2 °F 93% 29.57 in 4.0 mi WNW 6.9 mph - N/A   Overcast
12:35 AM 32.0 °F 24.8 °F 30.2 °F 93% 29.58 in 8.0 mi WNW 8.1 mph - N/A   Overcast
12:55 AM 32.0 °F 26.4 °F 30.2 °F 93% 29.58 in 9.0 mi NW 5.8 mph - N/A   Overcast
1:15 AM 30.2 °F 25.4 °F 28.4 °F 93% 29.59 in 3.0 mi NW 4.6 mph - N/A   Overcast
1:35 AM 30.2 °F 22.6 °F 28.4 °F 93% 29.60 in 2.0 mi NW 8.1 mph - 0.01 in   Overcast
1:55 AM 30.2 °F 24.3 °F 26.6 °F 86% 29.61 in 2.5 mi NW 5.8 mph - 0.01 in   Overcast
2:15 AM 28.4 °F 23.3 °F 26.6 °F 93% 29.61 in 4.0 mi NW 4.6 mph - N/A   Overcast
2:35 AM 28.4 °F 21.2 °F 24.8 °F 86% 29.61 in 3.0 mi NW 6.9 mph - N/A   Overcast
2:55 AM 28.4 °F 21.2 °F 26.6 °F 93% 29.61 in 5.0 mi NW 6.9 mph - N/A   Overcast
3:15 AM 28.4 °F 22.2 °F 24.8 °F 86% 29.61 in 3.0 mi NW 5.8 mph - N/A   Overcast
3:35 AM 28.4 °F 19.1 °F 24.8 °F 86% 29.61 in 6.0 mi West 10.4 mph 17.3 mph N/A   Overcast
3:55 AM 28.4 °F 18.5 °F 21.2 °F 74% 29.62 in 8.0 mi West 11.5 mph 25.3 mph N/A   Overcast
4:15 AM 26.6 °F 16.8 °F 17.6 °F 69% 29.63 in 10.0 mi West 10.4 mph 19.6 mph N/A   Overcast
4:35 AM 26.6 °F 18.2 °F 21.2 °F 80% 29.63 in 10.0 mi West 8.1 mph - N/A   Overcast
4:55 AM 26.6 °F 17.5 °F 19.4 °F 74% 29.63 in 10.0 mi West 9.2 mph 17.3 mph N/A   Overcast
5:15 AM 26.6 °F 17.5 °F 19.4 °F 74% 29.63 in 10.0 mi West 9.2 mph - N/A   Overcast
5:35 AM 26.6 °F 16.2 °F 19.4 °F 74% 29.63 in 10.0 mi WSW 11.5 mph 16.1 mph N/A   Overcast
5:55 AM 26.6 °F 17.5 °F 17.6 °F 69% 29.62 in 10.0 mi WSW 9.2 mph 18.4 mph N/A   Overcast
6:15 AM 24.8 °F 15.3 °F 19.4 °F 80% 29.62 in 10.0 mi WSW 9.2 mph - N/A   Overcast
6:35 AM 24.8 °F 14.6 °F 17.6 °F 74% 29.62 in 10.0 mi WSW 10.4 mph 21.9 mph N/A   Overcast
6:55 AM 24.8 °F 14.6 °F 17.6 °F 74% 29.62 in 10.0 mi West 10.4 mph 20.7 mph N/A   Overcast
7:15 AM 24.8 °F 12.4 °F 17.6 °F 74% 29.61 in 10.0 mi WSW 15.0 mph 21.9 mph N/A   Mostly Cloudy
7:35 AM 24.8 °F 13.4 °F 17.6 °F 74% 29.62 in 7.0 mi WSW 12.7 mph 25.3 mph N/A   Mostly Cloudy
8:15 AM 24.8 °F 14.6 °F 17.6 °F 74% 29.63 in 10.0 mi West 10.4 mph 21.9 mph N/A   Overcast
8:35 AM 24.8 °F 12.9 °F 19.4 °F 80% 29.63 in 5.0 mi West 13.8 mph 18.4 mph N/A   Overcast
9:15 AM 24.8 °F 15.3 °F 17.6 °F 74% 29.64 in 6.0 mi WSW 9.2 mph - N/A   Overcast
9:35 AM 24.8 °F 15.3 °F 19.4 °F 80% 29.64 in 5.0 mi West 9.2 mph - N/A   Overcast
9:55 AM 24.8 °F 17.9 °F 19.4 °F 80% 29.65 in 2.0 mi West 5.8 mph - N/A   Overcast
10:15 AM 23.0 °F 13.1 °F 19.4 °F 86% 29.65 in 2.5 mi WSW 9.2 mph - N/A   Overcast
10:36 AM 23.0 °F 17.0 °F 17.6 °F 80% 29.65 in 2.0 mi West 4.6 mph - N/A   Overcast
10:55 AM 23.0 °F - 19.4 °F 86% 29.65 in 1.2 mi Calm Calm - N/A   Overcast
11:35 AM 23.0 °F - 19.4 °F 86% 29.65 in 0.8 mi Calm Calm - N/A   Overcast
11:55 AM 23.0 °F 18.4 °F 21.2 °F 93% 29.65 in 1.5 mi West 3.5 mph - N/A   Overcast
12:15 PM 24.8 °F 20.5 °F 21.2 °F 86% 29.65 in 5.0 mi West 3.5 mph - N/A   Overcast
12:35 PM 24.8 °F 16.9 °F 19.4 °F 80% 29.65 in 1.2 mi West 6.9 mph - N/A   Overcast
12:55 PM 24.8 °F 14.0 °F 17.6 °F 74% 29.65 in 3.0 mi WSW 11.5 mph - N/A   Overcast
1:15 PM 24.8 °F 15.3 °F 19.4 °F 80% 29.65 in 1.5 mi WSW 9.2 mph - N/A   Overcast
1:35 PM 24.8 °F 14.0 °F 17.6 °F 74% 29.65 in 4.0 mi West 11.5 mph 18.4 mph N/A   Overcast
1:55 PM 24.8 °F 16.9 °F 19.4 °F 80% 29.65 in 2.0 mi WSW 6.9 mph - N/A   Overcast
2:55 PM 24.8 °F 13.4 °F 15.8 °F 69% 29.65 in 6.0 mi West 12.7 mph 18.4 mph N/A   Overcast
3:15 PM 24.8 °F 16.9 °F 15.8 °F 69% 29.66 in 10.0 mi WNW 6.9 mph - N/A   Mostly Cloudy
3:35 PM 24.8 °F 13.4 °F 15.8 °F 69% 29.67 in 6.0 mi West 12.7 mph - N/A   Overcast
3:55 PM 24.8 °F 15.3 °F 15.8 °F 69% 29.67 in 10.0 mi West 9.2 mph - N/A   Overcast
4:15 PM 24.8 °F 14.0 °F 15.8 °F 69% 29.67 in 10.0 mi WNW 11.5 mph - N/A   Overcast
4:35 PM 24.8 °F 15.3 °F 15.8 °F 69% 29.68 in 7.0 mi West 9.2 mph 16.1 mph N/A   Overcast
4:56 PM 23.0 °F 14.7 °F 17.6 °F 80% 29.68 in 8.0 mi West 6.9 mph - N/A   Overcast
5:35 PM 23.0 °F 12.4 °F 15.8 °F 74% 29.69 in 9.0 mi WSW 10.4 mph - N/A   Overcast
5:55 PM 23.0 °F 13.9 °F 12.2 °F 63% 29.70 in 10.0 mi West 8.1 mph - N/A   Mostly Cloudy
6:15 PM 23.0 °F 13.1 °F 12.2 °F 63% 29.72 in 10.0 mi West 9.2 mph - N/A   Overcast
6:35 PM 23.0 °F 12.4 °F 14.0 °F 68% 29.73 in 7.0 mi West 10.4 mph 18.4 mph N/A   Overcast
6:55 PM 21.2 °F 10.9 °F 17.6 °F 86% 29.73 in 2.5 mi West 9.2 mph 20.7 mph N/A   Overcast
7:35 PM 21.2 °F - 17.6 °F 86% 29.73 in 4.0 mi Calm Calm - N/A   Overcast
7:55 PM 21.2 °F 14.9 °F 15.8 °F 80% 29.72 in 10.0 mi West 4.6 mph - N/A   Overcast
8:35 PM 23.0 °F 11.1 °F 12.2 °F 63% 29.73 in 10.0 mi West 12.7 mph - N/A   Overcast
8:55 PM 23.0 °F 11.7 °F 12.2 °F 63% 29.73 in 10.0 mi West 11.5 mph - N/A   Overcast
9:15 PM 23.0 °F 12.4 °F 12.2 °F 63% 29.74 in 10.0 mi West 10.4 mph - N/A   Overcast
9:35 PM 23.0 °F 13.9 °F 12.2 °F 63% 29.74 in 10.0 mi West 8.1 mph - N/A   Overcast
9:55 PM 23.0 °F 13.1 °F 12.2 °F 63% 29.73 in 10.0 mi West 9.2 mph - N/A   Overcast
10:15 PM - - - N/A% 29.73 in 10.0 mi West 9.2 mph - N/A   Overcast
10:35 PM 23.0 °F 11.1 °F 12.2 °F 63% 29.74 in 10.0 mi West 12.7 mph 17.3 mph N/A   Overcast
10:55 PM 23.0 °F 11.7 °F 14.0 °F 68% 29.74 in 9.0 mi West 11.5 mph 18.4 mph N/A   Overcast
11:35 PM 21.2 °F 10.9 °F 12.2 °F 68% 29.75 in 9.0 mi West 9.2 mph 21.9 mph N/A   Overcast
11:55 PM 21.2 °F 10.9 °F 15.8 °F 80% 29.75 in 10.0 mi West 9.2 mph 18.4 mph N/A   Overcast